Temperature
21 20 20 20 20 19 19 19 19 19 19 19 19 18 18 18 18 18 18 18 18 18 18 18 18 18 18 18 18 17 17 17 17 17 17 17 17 17 17 17 17 17 16
20 20 20 20 20 19 19 19 19 19 19 18 18 18 18 18 18 18 18 18 18 18 18 18 18 17 17 17 17 17 17 17 17 17 17 17 17 17 17 16 16 16 16
20 20 20 20 19 19 19 19 19 19 18 18 18 18 18 18 18 18 17 17 17 17 17 17 17 17 17 17 17 17 17 17 17 17 17 17 17 16 16 16 16 16 16
20 20 20 20 19 19 19 19 19 19 18 18 18 18 18 18 18 17 17 17 17 17 17 17 17 17 17 17 17 17 17 16 16 16 16 16 16 16 16 16 16 16 15
20 19 19 19 19 19 19 19 19 19 18 18 18 18 18 17 17 17 17 17 17 17 17 17 17 17 17 17 17 17 16 16 16 16 16 16 16 15 15 15 15 15 15
20 19 19 19 19 19 18 18 18 18 18 18 18 17 17 17 17 17 17 17 17 17 17 17 16 17 17 16 16 16 16 16 16 16 16 16 15 15 15 15 15 15 14
19 19 19 19 18 18 18 18 18 18 17 17 17 17 17 17 17 17 17 17 16 16 16 16 16 16 16 16 16 16 16 16 16 15 15 15 15 15 15 15 15 14 14
19 19 19 18 18 18 18 17 17 17 17 17 17 17 17 17 17 16 16 16 16 16 16 16 16 16 16 16 16 16 16 16 15 15 15 15 15 15 15 14 14 14 14
18 18 18 18 18 18 17 17 17 17 17 17 17 16 16 16 16 16 16 16 16 16 16 16 16 16 16 16 15 15 15 15 15 15 15 15 15 15 14 14 14 14 13
18 18 18 18 18 17 17 17 17 17 16 16 16 16 16 16 16 16 16 16 16 16 16 16 16 15 15 15 15 15 15 15 15 15 15 14 14 14 14 14 14 13 13
17 17 17 17 17 17 17 17 16 16 16 16 16 16 16 16 16 15 15 15 15 15 15 15 15 15 15 15 15 15 14 14 14 14 14 14 14 14 14 13 13 13 13
17 16 16 16 16 16 16 16 16 16 16 16 15 15 15 15 15 15 15 15 15 15 15 15 15 15 14 14 14 14 14 14 14 14 13 13 13 13 13 13 13 13 12
16 16 16 16 16 15 15 15 15 15 15 15 15 15 15 15 15 15 15 14 14 14 15 14 14 14 14 14 14 14 14 13 13 13 13 13 13 13 13 12 12 12 12
15 15 15 15 15 15 15 15 15 15 15 15 15 15 15 15 15 14 14 14 14 14 14 14 14 14 14 13 13 13 13 13 13 13 13 12 12 12 12 12 12 12 12
15 15 15 15 14 14 14 14 14 14 14 14 14 14 14 14 14 14 14 14 14 14 13 13 13 13 13 13 13 12 12 12 12 12 12 12 12 11 11 11 11 11 11
14 14 14 14 14 14 14 14 14 14 14 14 14 14 14 14 14 13 13 13 13 13 13 13 13 12 12 12 12 12 12 12 12 12 11 11 11 11 11 11 10 10 10
14 13 13 13 13 13 13 13 13 13 13 13 13 14 13 13 13 13 13 13 13 12 12 12 12 12 12 12 12 11 11 11 11 11 11 11 11 10 10 10 10 10 9
13 13 13 12 12 12 12 12 12 12 12 13 13 13 13 13 13 13 12 12 12 12 12 12 12 12 12 11 11 11 11 11 11 10 10 10 10 10 10 9 9 9 9
12 12 12 12 12 12 12 12 12 12 12 12 12 12 12 12 12 12 12 12 12 12 12 12 12 11 11 11 11 11 11 10 10 10 10 10 9 9 9 9 9 9 9
12 12 11 11 11 11 11 11 11 11 11 11 11 12 11 11 11 11 11 11 11 11 11 11 11 11 11 11 11 11 10 10 10 10 9 9 9 9 9 9 8 8 8
11 11 11 11 11 11 11 11 11 11 11 11 11 11 11 11 11 11 11 11 11 11 11 11 11 11 11 11 10 10 10 10 10 9 9 9 9 9 8 8 8 8 8
11 11 10 10 10 10 10 10 11 11 11 11 11 11 11 11 11 11 10 10 10 10 10 10 10 10 10 10 10 10 10 10 9 9 9 9 9 8 8 8 8 8 8
10 10 10 10 10 10 10 10 10 10 10 10 10 10 10 10 10 10 10 10 10 10 10 10 10 10 10 10 10 10 9 9 9 9 9 8 8 8 8 8 8 7 7
10 10 10 10 10 10 10 10 10 10 10 10 10 10 10 10 10 10 9 9 9 10 10 10 9 9 9 9 9 9 9 9 9 9 9 8 8 8 8 7 7 7 7
10 10 10 9 9 9 9 9 9 9 9 9 9 9 9 9 9 9 9 9 9 9 9 9 9 9 9 9 9 9 9 9 9 8 8 8 8 7 7 7 7 7 7
10 9 9 9 9 9 9 9 9 9 9 9 9 9 9 9 9 8 8 8 8 9 9 9 8 8 8 8 8 8 8 8 8 8 8 7 7 7 7 7 7 7 6
Wind_Speed
9 8 7 6 6 6 5 6 6 5 5 5 5 5 5 5 5 5 5 5 5 5 5 4 5 4 3 3 2 1 2 2 3 4 2 1 1 1 1 3 4 5 6
8 7 7 6 6 6 6 6 5 5 6 6 5 5 6 6 5 6 7 6 6 7 6 5 6 4 4 4 2 2 2 2 3 3 2 1 1 2 2 2 3 3 4
7 7 6 6 6 6 7 6 6 6 5 5 5 6 6 6 6 6 7 7 7 7 6 6 6 5 5 4 3 3 2 2 2 2 3 2 1 1 0 1 1 1 2
5 6 7 8 7 7 7 6 6 6 6 6 6 6 6 6 6 6 6 7 6 6 6 7 7 6 6 5 4 4 3 2 1 1 2 2 1 1 1 1 1 1 1
5 5 7 7 6 5 5 5 5 5 6 5 5 5 5 5 6 6 6 7 6 7 6 6 7 7 7 6 4 4 3 2 2 2 2 1 1 1 2 2 1 1 2
4 5 5 4 4 5 5 4 4 4 4 3 4 5 5 6 7 8 7 6 6 7 7 7 7 6 6 6 6 5 5 4 4 3 3 3 3 3 2 2 1 0 2
2 3 3 4 5 5 4 3 4 5 4 4 5 5 5 6 7 7 8 6 6 6 7 6 6 6 5 4 4 4 4 5 6 5 5 5 4 4 3 2 2 2 3
2 2 3 4 4 4 3 4 4 4 4 5 5 5 5 6 6 6 6 6 5 6 6 7 7 6 5 5 4 2 2 3 4 4 5 6 5 5 5 4 4 2 2
1 2 3 4 4 4 4 5 4 3 4 5 4 4 5 6 6 6 5 3 4 6 6 6 6 6 8 7 5 4 3 3 3 4 5 5 6 6 5 2 2 2 2
2 2 2 3 3 5 5 5 4 3 5 5 5 5 6 6 7 6 5 3 4 4 4 5 7 8 9 8 6 6 5 5 3 2 2 3 2 3 4 5 5 4 2
2 1 1 2 3 4 4 4 4 4 5 5 5 5 5 6 6 7 6 4 4 4 4 4 4 7 9 9 8 7 8 6 4 3 2 2 2 1 2 3 4 5 4
1 1 2 3 3 2 3 4 4 4 5 5 4 5 5 5 5 7 8 8 6 4 4 4 4 6 7 8 7 7 7 5 3 2 2 2 2 2 3 2 3 4 4
0 2 3 3 3 3 3 4 4 4 4 5 4 5 5 4 4 7 8 9 8 5 4 5 5 6 5 5 6 7 6 4 3 3 3 3 3 3 2 0 1 1 1
1 2 3 3 3 3 2 3 4 4 5 5 5 5 5 4 3 3 3 4 5 4 2 2 3 3 3 3 2 3 4 4 4 4 4 2 1 1 1 0 0 0 1
2 3 3 3 3 3 3 3 4 5 5 6 6 5 5 5 6 7 5 4 3 3 2 1 1 1 1 1 1 2 2 2 3 3 3 2 2 1 0 0 0 1 0
2 3 3 3 3 3 3 4 5 5 6 6 7 6 5 6 6 6 7 6 5 5 4 2 3 3 4 4 3 2 2 2 2 3 3 3 3 2 1 0 1 1 0
3 3 3 3 3 3 3 3 4 5 5 5 6 6 7 6 6 6 6 4 4 5 3 3 4 4 4 3 3 3 3 3 2 2 3 3 2 2 2 2 1 1 1
3 4 4 4 4 4 4 4 3 3 3 4 4 5 6 7 7 7 5 3 2 3 4 4 4 4 4 4 4 4 3 2 2 2 3 3 3 2 2 2 2 2 1
3 3 3 4 3 3 3 3 3 4 3 3 3 3 4 5 6 6 6 4 5 5 5 5 5 4 4 4 5 4 4 4 3 3 3 3 3 3 3 3 3 3 2
4 5 4 3 3 3 3 3 3 3 3 3 4 4 2 2 2 3 4 4 5 5 5 5 5 5 5 5 5 5 4 4 4 4 3 3 3 4 4 4 3 3 2
4 4 5 4 3 3 3 3 3 3 4 4 4 5 5 4 4 4 4 4 4 5 5 5 4 4 4 4 4 5 5 5 5 4 4 4 3 3 3 3 3 3 2
3 3 3 3 3 3 3 3 3 3 4 4 4 3 5 3 2 3 3 4 4 4 4 4 4 4 4 4 5 5 5 5 4 4 4 3 3 3 3 3 3 3 3
3 3 3 3 3 3 3 3 3 3 4 3 3 2 2 3 3 3 3 3 3 3 3 3 3 3 2 3 4 5 6 6 5 6 5 4 4 4 3 3 4 3 3
2 3 3 3 3 2 3 3 3 3 3 3 2 2 3 3 3 3 3 2 2 2 2 2 3 3 3 3 3 4 4 5 5 5 6 6 5 5 4 4 4 4 4
2 3 2 2 2 2 2 3 3 3 3 2 2 2 2 2 2 2 2 2 2 2 2 2 2 2 3 3 3 3 4 5 5 4 4 5 5 5 5 5 4 4 4
2 2 1 1 2 2 2 2 2 3 3 2 2 2 2 2 2 2 2 2 2 2 2 1 2 3 3 3 3 4 4 4 4 4 4 4 5 5 5 5 5 5 5
Wind_Direction
192 198 203 202 207 206 212 222 225 227 226 226 228 225 221 219 219 217 224 225 230 243 248 238 247 245 242 243 236 223 208 185 228 270 262 292 285 263 233 223 220 204 207
190 189 200 202 202 206 219 228 228 230 231 228 227 226 224 223 219 219 226 229 228 237 243 241 248 247 241 242 230 232 229 207 203 250 276 288 269 238 218 217 211 208 205
183 187 201 211 210 215 225 227 226 230 237 234 226 225 229 227 222 226 228 233 232 234 234 236 243 238 240 240 230 234 235 227 197 212 256 274 276 241 11 277 236 223 213
184 192 207 218 221 222 225 228 229 227 232 236 233 229 227 227 226 230 233 236 239 236 229 231 234 229 232 233 232 231 226 223 213 215 249 275 277 281 157 226 307 303 267
189 207 221 225 223 217 219 224 229 228 233 234 234 239 236 234 237 230 231 236 236 235 234 234 234 228 230 227 227 213 201 205 215 223 244 260 272 267 229 220 244 285 289
198 220 228 225 216 210 214 217 221 227 231 227 232 241 243 247 248 235 225 235 233 232 234 237 238 233 235 228 225 212 195 202 211 214 228 237 244 235 225 216 209 248 279
213 229 219 210 209 215 216 213 217 220 221 230 236 240 246 251 254 247 234 227 227 227 230 232 239 235 216 213 224 229 234 230 210 203 219 230 225 220 204 221 227 222 242
202 222 218 210 210 210 214 220 220 215 220 231 240 241 245 255 254 256 248 232 233 235 230 225 224 226 219 195 197 218 247 257 241 221 220 230 228 217 202 203 214 227 278
202 228 229 216 214 211 219 230 229 224 237 242 238 240 246 258 250 244 236 229 236 243 239 229 214 219 226 204 189 208 241 268 275 247 236 239 234 222 198 167 175 167 269
247 250 263 237 226 225 225 228 233 229 236 247 247 246 243 249 250 238 221 221 238 250 253 244 227 219 220 206 194 197 219 240 247 287 292 289 263 237 210 190 188 195 219
248 271 303 260 241 239 234 229 230 233 236 239 245 252 248 244 243 231 218 216 233 239 245 248 243 227 219 216 205 205 217 215 212 223 248 275 284 258 230 211 199 194 208
343 346 331 307 278 275 248 250 249 243 245 249 251 262 257 245 233 230 221 222 225 224 234 239 241 234 225 217 214 218 212 199 190 198 215 238 249 255 257 242 231 224 224
301 295 297 305 297 286 262 260 271 261 253 254 245 250 261 255 245 239 232 235 234 229 238 238 236 227 221 221 221 211 195 190 188 197 216 232 236 233 234 273 338 358 349
252 276 282 288 293 296 282 253 247 249 250 249 243 241 248 248 241 235 239 245 246 245 263 252 232 218 211 213 211 209 202 197 194 200 208 221 233 203 194 174 238 343 7
280 281 285 283 283 288 286 271 256 247 239 238 238 226 224 239 239 217 209 219 215 208 180 164 164 176 208 216 223 222 219 215 211 206 194 200 207 194 211 31 82 67 56
293 285 278 279 279 274 279 299 302 279 278 260 244 235 237 233 231 222 218 221 211 181 159 183 204 209 212 209 209 214 217 224 218 201 191 190 189 189 190 101 100 109 105
270 281 282 278 272 269 266 270 288 306 307 291 277 255 235 228 227 226 229 224 207 171 179 207 212 214 218 210 202 200 214 221 203 187 192 189 179 179 179 182 171 151 168
277 281 281 273 264 261 262 256 253 264 286 299 302 273 250 236 231 223 216 179 192 192 209 215 217 212 209 210 209 207 203 194 185 195 199 189 183 181 180 190 193 190 196
283 281 281 281 276 271 266 258 261 268 268 270 284 290 258 242 238 229 199 196 211 215 221 223 218 210 211 213 214 208 195 190 190 189 195 194 189 182 192 198 200 197 187
282 284 291 286 284 286 282 276 276 273 268 262 260 261 250 226 233 229 210 214 218 220 220 219 220 218 214 211 210 201 195 195 192 191 193 191 191 187 191 196 197 201 215
283 290 295 297 288 280 277 271 266 265 265 261 258 254 227 220 231 232 228 225 223 222 220 218 216 219 219 211 206 202 197 198 195 189 192 189 187 191 200 199 199 198 202
274 276 276 267 266 270 273 267 265 267 267 264 266 265 236 224 228 229 227 229 227 223 218 211 212 216 210 201 199 196 188 189 191 188 188 189 189 193 196 199 198 202 201
272 275 274 269 267 272 280 280 273 269 267 262 261 257 239 231 227 229 232 232 228 223 216 203 202 210 212 199 190 182 187 198 198 191 189 194 199 199 198 202 208 212 213
285 275 270 279 289 288 281 281 279 275 272 264 260 256 248 241 235 229 229 227 215 211 213 205 199 197 197 191 182 186 193 202 198 192 190 197 205 207 206 206 210 210 209
291 286 281 277 281 281 282 287 290 288 282 270 260 257 258 254 245 233 223 206 200 203 208 200 182 179 181 188 188 189 189 195 206 207 199 200 206 207 206 209 210 206 208
288 289 277 275 286 292 289 288 291 288 282 265 248 241 240 238 234 226 219 206 208 211 211 197 173 171 168 166 173 174 181 186 192 201 204 200 205 209 207 213 209 208 211
Height
1532 1534 1535 1536 1537 1537 1538 1539 1540 1541 1541 1541 1541 1541 1541 1541 1541 1542 1541 1542 1542 1543 1543 1542 1542 1542 1541 1541 1540 1540 1539 1539 1538 1537 1537 1536 1535 1535 1534 1534 1534 1533 1533
1529 1531 1532 1532 1533 1533 1534 1535 1536 1536 1537 1538 1538 1538 1538 1538 1538 1538 1538 1538 1538 1539 1539 1539 1539 1539 1538 1537 1537 1536 1536 1536 1535 1534 1533 1533 1532 1531 1531 1531 1530 1530 1530
1527 1527 1528 1528 1529 1529 1530 1531 1532 1532 1533 1534 1533 1533 1533 1533 1533 1533 1534 1534 1534 1535 1535 1535 1535 1535 1534 1534 1533 1533 1533 1532 1532 1531 1530 1530 1529 1528 1528 1528 1528 1527 1527
1524 1525 1525 1525 1525 1525 1526 1527 1527 1528 1528 1529 1529 1529 1528 1529 1529 1529 1529 1529 1530 1530 1530 1530 1531 1530 1530 1530 1529 1529 1529 1529 1528 1528 1527 1526 1526 1525 1525 1524 1524 1524 1523
1521 1521 1521 1521 1521 1522 1522 1522 1523 1523 1524 1524 1524 1524 1524 1524 1524 1524 1524 1524 1525 1525 1525 1525 1526 1526 1526 1526 1525 1525 1525 1525 1525 1524 1523 1522 1522 1521 1521 1521 1521 1520 1520
1518 1518 1518 1518 1518 1518 1518 1518 1518 1518 1519 1519 1519 1519 1519 1519 1519 1520 1519 1519 1519 1519 1519 1520 1521 1521 1521 1521 1521 1521 1521 1521 1520 1520 1520 1519 1518 1518 1518 1518 1517 1517 1516
1514 1514 1514 1513 1514 1514 1514 1514 1514 1514 1514 1515 1515 1515 1515 1515 1515 1515 1514 1514 1514 1514 1514 1515 1516 1516 1517 1517 1517 1517 1517 1517 1517 1517 1516 1515 1515 1515 1514 1514 1514 1514 1513
1512 1511 1511 1511 1511 1511 1510 1510 1509 1510 1510 1510 1510 1510 1510 1510 1510 1510 1510 1510 1509 1509 1509 1510 1511 1511 1512 1512 1512 1512 1512 1512 1513 1512 1512 1512 1512 1512 1511 1511 1511 1510 1510
1509 1508 1508 1507 1507 1506 1506 1506 1505 1505 1505 1506 1506 1506 1505 1505 1505 1505 1505 1505 1505 1504 1505 1505 1506 1506 1507 1507 1508 1507 1507 1508 1508 1508 1508 1508 1508 1507 1507 1507 1507 1506 1506
1507 1506 1505 1504 1504 1503 1502 1502 1502 1501 1501 1502 1502 1502 1501 1501 1500 1500 1501 1500 1500 1500 1500 1500 1501 1501 1502 1502 1503 1503 1503 1503 1503 1504 1504 1503 1503 1503 1503 1503 1503 1502 1501
1504 1503 1502 1501 1500 1500 1499 1498 1498 1498 1498 1498 1498 1497 1497 1496 1496 1496 1496 1495 1495 1494 1494 1494 1495 1495 1496 1497 1497 1498 1498 1499 1499 1499 1499 1499 1499 1499 1499 1499 1499 1499 1498
1501 1500 1499 1498 1497 1496 1495 1494 1493 1494 1494 1493 1493 1492 1492 1492 1491 1491 1491 1491 1490 1489 1489 1489 1489 1490 1491 1491 1492 1493 1494 1494 1494 1495 1495 1495 1495 1495 1495 1495 1495 1495 1494
1499 1497 1496 1495 1494 1493 1491 1491 1490 1490 1489 1489 1488 1487 1487 1487 1487 1486 1486 1486 1485 1485 1484 1484 1484 1485 1485 1486 1487 1488 1488 1489 1489 1489 1490 1490 1491 1491 1491 1491 1491 1491 1490
1495 1494 1492 1491 1490 1489 1487 1487 1487 1486 1485 1484 1483 1482 1482 1482 1482 1482 1481 1481 1480 1480 1479 1479 1480 1480 1480 1481 1482 1483 1483 1484 1484 1485 1485 1486 1486 1487 1487 1487 1486 1486 1486
1491 1490 1489 1487 1486 1484 1483 1482 1481 1481 1481 1480 1478 1478 1477 1477 1477 1477 1477 1477 1476 1476 1475 1475 1475 1475 1475 1476 1477 1478 1478 1479 1479 1480 1480 1481 1482 1482 1482 1482 1482 1482 1481
1487 1486 1484 1483 1481 1480 1479 1478 1477 1476 1475 1475 1474 1473 1472 1472 1472 1472 1472 1472 1472 1472 1471 1470 1470 1470 1471 1471 1472 1473 1474 1474 1474 1475 1475 1476 1476 1477 1478 1478 1479 1478 1478
1483 1482 1480 1479 1477 1476 1475 1473 1472 1471 1470 1469 1469 1468 1468 1468 1467 1467 1467 1468 1467 1467 1466 1466 1466 1466 1466 1467 1467 1468 1469 1470 1471 1471 1471 1471 1472 1473 1473 1474 1474 1474 1474
1479 1478 1476 1475 1473 1472 1470 1469 1468 1466 1465 1464 1463 1463 1463 1463 1463 1462 1463 1463 1462 1462 1461 1461 1461 1462 1462 1462 1463 1464 1465 1466 1467 1467 1467 1467 1468 1469 1469 1469 1470 1470 1470
1475 1473 1472 1470 1469 1467 1466 1464 1463 1462 1461 1459 1458 1458 1458 1458 1458 1458 1458 1457 1457 1457 1457 1457 1457 1457 1458 1458 1459 1459 1460 1461 1462 1463 1462 1463 1464 1465 1465 1466 1467 1467 1467
1470 1469 1468 1466 1465 1463 1462 1461 1459 1458 1457 1455 1454 1454 1454 1454 1453 1453 1453 1453 1452 1452 1452 1452 1452 1453 1454 1454 1454 1454 1455 1456 1457 1458 1458 1459 1460 1460 1461 1462 1462 1462 1462
1466 1464 1463 1462 1460 1459 1458 1456 1455 1454 1453 1451 1450 1450 1450 1449 1448 1448 1448 1448 1448 1447 1447 1448 1448 1448 1449 1449 1449 1450 1451 1451 1452 1453 1454 1455 1456 1456 1457 1458 1458 1458 1459
1461 1460 1458 1457 1456 1455 1454 1453 1451 1450 1449 1448 1446 1446 1446 1445 1444 1443 1443 1443 1443 1443 1444 1444 1444 1444 1444 1444 1445 1445 1445 1447 1448 1449 1450 1451 1452 1452 1453 1453 1454 1454 1455
1457 1456 1454 1453 1452 1451 1450 1449 1447 1446 1445 1444 1443 1442 1442 1441 1440 1440 1440 1440 1440 1440 1440 1440 1440 1440 1440 1440 1441 1441 1441 1442 1443 1444 1445 1446 1447 1448 1449 1449 1450 1451 1451
1453 1452 1451 1449 1448 1447 1446 1445 1444 1442 1441 1440 1440 1439 1438 1438 1437 1436 1436 1436 1436 1436 1436 1436 1436 1436 1436 1436 1436 1437 1438 1439 1440 1440 1441 1441 1442 1443 1444 1445 1446 1447 1447
1450 1449 1447 1446 1445 1444 1442 1441 1440 1438 1437 1437 1436 1435 1435 1434 1433 1432 1432 1432 1433 1432 1432 1432 1432 1432 1432 1432 1432 1433 1434 1435 1435 1436 1436 1437 1437 1438 1439 1440 1441 1442 1443
1447 1446 1444 1443 1441 1440 1439 1437 1436 1435 1434 1433 1432 1431 1431 1430 1429 1428 1428 1428 1428 1428 1428 1427 1428 1427 1427 1428 1428 1429 1430 1430 1431 1431 1431 1432 1432 1433 1434 1435 1436 1436 1437